Location: Pcim
(49.7500°N, 19.9670°E)
Time: 23:47:55
(UTC+02:00)

EO-79 - Visible Passes

Search period start: 07 October 2024 00:00
Search period end: 17 October 2024 00:00
Orbit: 549 x 567 km, 98.1° (Epoch: 07 October)

Date Brightness Start Highest point End Pass type
(mag) Time Alt. Az. Time Alt. Az. Time Alt. Az.
07 Oct ? 04:18:54 10° NNE 04:22:51 64° ESE 04:23:09 61° SE visible
07 Oct ? 05:54:53 10° NNW 05:57:14 15° WNW 05:59:01 12° W visible
08 Oct ? 04:17:04 10° NNE 04:21:01 61° ESE 04:21:10 60° ESE visible
08 Oct ? 05:52:58 10° NNW 05:55:25 16° WNW 05:57:02 13° W visible
09 Oct ? 04:15:11 10° NNE 04:19:06 58° E 04:19:09 57° ESE visible
09 Oct ? 05:51:00 10° NNW 05:53:33 17° WNW 05:55:00 14° W visible
10 Oct ? 04:13:15 10° NNE 04:17:03 54° E 04:17:03 54° E visible
10 Oct ? 05:48:59 10° NNW 05:51:38 17° WNW 05:52:54 15° W visible
11 Oct ? 04:11:16 10° NNE 04:14:55 50° E 04:14:55 50° E visible
11 Oct ? 05:46:56 10° NNW 05:49:39 18° WNW 05:50:46 16° W visible
12 Oct ? 04:09:15 10° NNE 04:12:43 47° E 04:12:43 47° E visible
12 Oct ? 05:44:49 10° NNW 05:47:37 19° WNW 05:48:35 17° W visible
13 Oct ? 04:07:10 10° NNE 04:10:29 43° ENE 04:10:29 43° ENE visible
13 Oct ? 05:42:39 10° NNW 05:45:33 20° WNW 05:46:19 19° WNW visible
14 Oct ? 04:05:03 10° NNE 04:08:11 39° ENE 04:08:11 39° ENE visible
14 Oct ? 05:40:27 10° NNW 05:43:25 21° WNW 05:44:01 20° WNW visible
15 Oct ? 04:02:52 10° NNE 04:05:50 36° ENE 04:05:50 36° ENE visible
15 Oct ? 05:38:11 10° NNW 05:41:15 22° WNW 05:41:40 21° WNW visible
16 Oct ? 04:00:39 10° NNE 04:03:26 33° ENE 04:03:26 33° ENE visible
16 Oct ? 05:35:53 10° N 05:39:00 23° WNW 05:39:16 23° WNW visible
